• In Latvia
  • List of Countries
  • For 7 days
  • Water Temperature
  • Satellite Maps
  • Weather Map
  • Weather Widgets
  • user-avatar
    Login

    Hourly Weather Korçe

    Today, 13 November, Tuesday

    Time Temperature Precipitation Wind Pressure Humidity
    00:00 +7°C° 0 mm 1 mps 673 mmHg 51%
    01:00 +7°C° 0 mm 1 mps 673 mmHg 51%
    02:00 +6°C° 0 mm 1 mps 672 mmHg 52%
    03:00 +6°C° 0 mm 1 mps 672 mmHg 52%
    04:00 +6°C° 0 mm 1 mps 672 mmHg 52%
    05:00 +6°C° 0 mm 1 mps 672 mmHg 53%
    06:00 +6°C° 0 mm 1 mps 673 mmHg 54%
    07:00 +6°C° 0 mm 1 mps 673 mmHg 54%
    08:00 +9°C° 0 mm 1 mps 673 mmHg 48%
    09:00 +11°C° 0 mm 1 mps 674 mmHg 42%
    10:00 +13°C° 0 mm 1 mps 674 mmHg 36%
    11:00 +14°C° 0 mm 1 mps 675 mmHg 34%
    12:00 +15°C° 0 mm 1 mps 675 mmHg 32%
    13:00 +16°C° 0 mm 1 mps 675 mmHg 31%
    14:00 +15°C° 0 mm 1 mps 674 mmHg 36%
    15:00 +13°C° 0 mm 1 mps 674 mmHg 41%
    16:00 +12°C° 0 mm 1 mps 673 mmHg 47%
    17:00 +11°C° 0 mm 1 mps 673 mmHg 50%
    18:00 +10°C° 0 mm 1 mps 673 mmHg 53%
    19:00 +9°C° 0 mm 1 mps 672 mmHg 56%
    20:00 +8°C° 0 mm 1 mps 672 mmHg 57%
    21:00 +8°C° 0 mm 1 mps 672 mmHg 58%
    22:00 +8°C° 0 mm 1 mps 672 mmHg 58%
    23:00 +7°C° 0 mm 1 mps 672 mmHg 58%

    Tomorrow, 14 November, Wednesday

    Time Temperature Precipitation Wind Pressure Humidity
    00:00 +7°C° 0 mm 1 mps 672 mmHg 58%
    01:00 +7°C° 0 mm 1 mps 672 mmHg 59%
    02:00 +7°C° 0 mm 1 mps 671 mmHg 59%
    03:00 +6°C° 0 mm 1 mps 671 mmHg 59%
    04:00 +6°C° 0 mm 1 mps 671 mmHg 59%
    05:00 +6°C° 0 mm 1 mps 671 mmHg 59%
    06:00 +6°C° 0 mm 1 mps 671 mmHg 59%
    07:00 +6°C° 0 mm 1 mps 671 mmHg 59%
    08:00 +9°C° 0 mm 1 mps 672 mmHg 52%
    09:00 +11°C° 0 mm 1 mps 672 mmHg 45%
    10:00 +14°C° 0 mm 1 mps 673 mmHg 38%
    11:00 +15°C° 0 mm 1 mps 673 mmHg 36%
    12:00 +15°C° 0 mm 1 mps 672 mmHg 35%
    13:00 +16°C° 0 mm 2 mps 672 mmHg 33%
    14:00 +15°C° 0 mm 2 mps 672 mmHg 38%
    15:00 +14°C° 0 mm 2 mps 671 mmHg 44%
    16:00 +12°C° 0 mm 2 mps 671 mmHg 49%
    17:00 +11°C° 0 mm 1 mps 670 mmHg 52%
    18:00 +10°C° 0 mm 1 mps 670 mmHg 55%
    19:00 +9°C° 0 mm 1 mps 670 mmHg 59%
    20:00 +9°C° 0 mm 1 mps 670 mmHg 61%
    21:00 +8°C° 0 mm 1 mps 670 mmHg 63%
    22:00 +7°C° 0 mm 2 mps 670 mmHg 66%
    23:00 +7°C° 0 mm 2 mps 670 mmHg 69%

    Day after tomorrow, 15 November, Thursday

    Time Temperature Precipitation Wind Pressure Humidity
    00:00 +6°C° 0 mm 2 mps 670 mmHg 71%
    01:00 +6°C° 0 mm 2 mps 669 mmHg 74%
    02:00 +6°C° 0 mm 2 mps 669 mmHg 76%
    03:00 +5°C° 0 mm 2 mps 669 mmHg 77%
    04:00 +5°C° 0 mm 2 mps 669 mmHg 79%
    05:00 +5°C° 0 mm 2 mps 669 mmHg 79%
    06:00 +4°C° 0 mm 2 mps 669 mmHg 79%
    07:00 +4°C° 0 mm 2 mps 669 mmHg 79%
    08:00 +6°C° 0 mm 2 mps 669 mmHg 68%
    09:00 +8°C° 0 mm 2 mps 670 mmHg 57%
    10:00 +10°C° 0 mm 2 mps 670 mmHg 46%
    11:00 +12°C° 0 mm 2 mps 670 mmHg 43%
    12:00 +12°C° 0 mm 2 mps 670 mmHg 40%
    13:00 +13°C° 0 mm 2 mps 670 mmHg 37%
    14:00 +12°C° 0 mm 2 mps 669 mmHg 40%
    15:00 +10°C° 0 mm 2 mps 669 mmHg 43%
    16:00 +9°C° 0 mm 2 mps 668 mmHg 46%
    17:00 +7°C° 0 mm 2 mps 668 mmHg 49%
    18:00 +6°C° 0 mm 2 mps 668 mmHg 51%
    19:00 +5°C° 0 mm 2 mps 668 mmHg 53%
    20:00 +4°C° 0 mm 2 mps 668 mmHg 54%
    21:00 +4°C° 0 mm 2 mps 669 mmHg 56%
    22:00 +3°C° 0 mm 2 mps 669 mmHg 58%
    23:00 +3°C° 0 mm 2 mps 669 mmHg 60%

    16 November, Friday

    Time Temperature Precipitation Wind Pressure Humidity
    00:00 +2°C° 0 mm 2 mps 669 mmHg 62%
    01:00 +1°C° 0 mm 3 mps 668 mmHg 64%
    02:00 +1°C° 0 mm 3 mps 668 mmHg 66%
    03:00 0°C° 0 mm 3 mps 668 mmHg 69%
    04:00 0°C° 0 mm 3 mps 668 mmHg 71%
    05:00 0°C° 0 mm 3 mps 668 mmHg 72%
    06:00 0°C° 0 mm 3 mps 669 mmHg 73%
    07:00 0°C° 0 mm 3 mps 669 mmHg 74%
    08:00 +1°C° 0 mm 3 mps 669 mmHg 66%
    09:00 +3°C° 0 mm 3 mps 670 mmHg 58%
    10:00 +5°C° 0 mm 3 mps 671 mmHg 50%
    11:00 +7°C° 0 mm 3 mps 670 mmHg 47%
    12:00 +7°C° 0 mm 3 mps 670 mmHg 44%
    13:00 +8°C° 0 mm 3 mps 670 mmHg 41%
    14:00 +7°C° 0 mm 3 mps 670 mmHg 45%
    15:00 +5°C° 0 mm 3 mps 670 mmHg 48%
    16:00 +5°C° 0 mm 2 mps 670 mmHg 51%
    17:00 +4°C° 0 mm 2 mps 670 mmHg 55%
    18:00 +3°C° 0 mm 2 mps 670 mmHg 59%
    19:00 +2°C° 0 mm 2 mps 670 mmHg 63%
    20:00 +2°C° 0 mm 2 mps 670 mmHg 66%
    21:00 +1°C° 0 mm 2 mps 670 mmHg 68%
    22:00 +1°C° 0 mm 2 mps 670 mmHg 70%
    23:00 +1°C° 0 mm 2 mps 670 mmHg 72%

    17 November, Saturday

    Time Temperature Precipitation Wind Pressure Humidity
    00:00 -1°C° 0 mm 2 mps 670 mmHg 74%
    01:00 -1°C° 0 mm 2 mps 670 mmHg 75%
    02:00 -1°C° 0 mm 2 mps 670 mmHg 76%
    03:00 -1°C° 0 mm 2 mps 670 mmHg 76%
    04:00 -2°C° 0 mm 2 mps 669 mmHg 77%
    05:00 -2°C° 0 mm 3 mps 669 mmHg 76%
    06:00 -2°C° 0 mm 3 mps 670 mmHg 75%
    07:00 -2°C° 0 mm 3 mps 670 mmHg 73%
    08:00 0°C° 0 mm 3 mps 670 mmHg 67%
    09:00 +2°C° 0 mm 3 mps 670 mmHg 60%
    10:00 +4°C° 0 mm 3 mps 671 mmHg 53%
    11:00 +4°C° 0 mm 3 mps 671 mmHg 52%
    12:00 +5°C° 0 mm 3 mps 670 mmHg 51%
    13:00 +5°C° 0 mm 3 mps 670 mmHg 50%
    14:00 +4°C° 0 mm 3 mps 670 mmHg 54%
    15:00 +4°C° 0 mm 3 mps 669 mmHg 57%
    16:00 +3°C° 0 mm 3 mps 669 mmHg 61%
    17:00 +2°C° 0 mm 3 mps 669 mmHg 63%
    18:00 +2°C° 0 mm 3 mps 669 mmHg 66%
    19:00 +1°C° 0 mm 3 mps 669 mmHg 68%
    20:00 +1°C° 0 mm 3 mps 669 mmHg 70%
    21:00 +1°C° 0 mm 3 mps 669 mmHg 71%
    22:00 +1°C° 0 mm 3 mps 668 mmHg 72%
    23:00 +1°C° 0 mm 3 mps 668 mmHg 72%

    18 November, Sunday

    Time Temperature Precipitation Wind Pressure Humidity
    00:00 0°C° 0 mm 3 mps 668 mmHg 72%
    01:00 0°C° 0 mm 3 mps 668 mmHg 73%
    02:00 -1°C° 0.1 mm 4 mps 667 mmHg 74%
    03:00 -1°C° 0.1 mm 4 mps 667 mmHg 75%
    04:00 -1°C° 0.1 mm 4 mps 666 mmHg 76%
    05:00 -1°C° 0.2 mm 4 mps 666 mmHg 76%
    06:00 -1°C° 0.2 mm 4 mps 666 mmHg 77%
    07:00 -1°C° 0.2 mm 4 mps 665 mmHg 77%
    08:00 0°C° 0.6 mm 4 mps 665 mmHg 76%
    09:00 0°C° 0.6 mm 4 mps 665 mmHg 75%
    10:00 0°C° 0.6 mm 5 mps 665 mmHg 73%
    11:00 0°C° 0.9 mm 4 mps 665 mmHg 74%
    12:00 0°C° 0.9 mm 4 mps 664 mmHg 75%
    13:00 +1°C° 0.9 mm 4 mps 664 mmHg 76%
    14:00 0°C° 0.4 mm 4 mps 663 mmHg 77%
    15:00 0°C° 0.4 mm 4 mps 663 mmHg 79%
    16:00 0°C° 0.4 mm 4 mps 663 mmHg 80%
    17:00 0°C° 0.2 mm 4 mps 663 mmHg 80%
    18:00 +1°C° 0.2 mm 3 mps 662 mmHg 81%
    19:00 +1°C° 0.2 mm 3 mps 662 mmHg 81%
    20:00 +1°C° 0.1 mm 3 mps 662 mmHg 82%
    21:00 +1°C° 0.1 mm 3 mps 662 mmHg 82%
    22:00 +1°C° 0.1 mm 3 mps 662 mmHg 82%
    23:00 +1°C° 0.1 mm 3 mps 661 mmHg 83%
    Show more